When you browse on this site, cookies collect data to enhance your experience and personalize the content and advertising you see.
Visit our Privacy Policy to learn more. By continuing to use the site, you agree to this use of cookies and data.
  • In Spain
  • List of Countries
  • For 7 days
  • Water Temperature
  • Weather Map
  • Weather Widgets
  • user-avatar
    Login

    Hourly Weather Podgornyy

    Today, 17 August, Saturday

    Time Temperature Precipitation Wind Pressure Humidity
    00:00 +17°C° 0.1 mm 5 mps 733 mmHg 95%
    01:00 +17°C° 0.1 mm 5 mps 733 mmHg 95%
    02:00 +16°C° 0 mm 5 mps 734 mmHg 93%
    03:00 +18°C° 0 mm 4 mps 734 mmHg 94%
    04:00 +18°C° 0 mm 4 mps 733 mmHg 94%
    05:00 +18°C° 0 mm 4 mps 733 mmHg 95%
    06:00 +18°C° 0.1 mm 4 mps 733 mmHg 94%
    07:00 +19°C° 0.1 mm 4 mps 733 mmHg 93%
    08:00 +19°C° 0.1 mm 5 mps 733 mmHg 92%
    09:00 +20°C° 0.2 mm 5 mps 733 mmHg 89%
    10:00 +21°C° 0.2 mm 5 mps 733 mmHg 86%
    11:00 +21°C° 0.2 mm 5 mps 733 mmHg 84%
    12:00 +21°C° 1.7 mm 4 mps 733 mmHg 86%
    13:00 +20°C° 1.7 mm 4 mps 733 mmHg 89%
    14:00 +20°C° 1.7 mm 4 mps 733 mmHg 92%
    15:00 +19°C° 2.2 mm 3 mps 733 mmHg 93%
    16:00 +19°C° 2.2 mm 2 mps 732 mmHg 95%
    17:00 +19°C° 2.2 mm 1 mps 732 mmHg 97%
    18:00 +19°C° 1.2 mm 1 mps 732 mmHg 97%
    19:00 +18°C° 1.2 mm 2 mps 732 mmHg 97%
    20:00 +17°C° 1.2 mm 2 mps 732 mmHg 97%
    21:00 +17°C° 0.2 mm 2 mps 732 mmHg 97%
    22:00 +17°C° 0.2 mm 2 mps 731 mmHg 97%
    23:00 +17°C° 0.2 mm 2 mps 731 mmHg 97%

    Tomorrow, 18 August, Sunday

    Time Temperature Precipitation Wind Pressure Humidity
    00:00 +17°C° 0 mm 2 mps 731 mmHg 97%
    01:00 +16°C° 0 mm 2 mps 732 mmHg 97%
    02:00 +16°C° 0 mm 2 mps 732 mmHg 97%
    03:00 +16°C° 0 mm 1 mps 732 mmHg 97%
    04:00 +16°C° 0 mm 1 mps 732 mmHg 97%
    05:00 +15°C° 0 mm 1 mps 732 mmHg 98%
    06:00 +16°C° 0 mm 1 mps 732 mmHg 95%
    07:00 +18°C° 0 mm 1 mps 733 mmHg 92%
    08:00 +19°C° 0 mm 1 mps 733 mmHg 90%
    09:00 +19°C° 0 mm 2 mps 733 mmHg 87%
    10:00 +20°C° 0 mm 2 mps 734 mmHg 84%
    11:00 +20°C° 0 mm 2 mps 734 mmHg 82%
    12:00 +21°C° 0.1 mm 3 mps 734 mmHg 80%
    13:00 +21°C° 0.1 mm 3 mps 735 mmHg 78%
    14:00 +21°C° 0.1 mm 4 mps 735 mmHg 76%
    15:00 +21°C° 0 mm 4 mps 735 mmHg 77%
    16:00 +21°C° 0 mm 4 mps 735 mmHg 78%
    17:00 +21°C° 0 mm 4 mps 736 mmHg 79%
    18:00 +19°C° 0 mm 3 mps 736 mmHg 84%
    19:00 +17°C° 0 mm 3 mps 737 mmHg 89%
    20:00 +16°C° 0 mm 2 mps 737 mmHg 94%
    21:00 +15°C° 0 mm 2 mps 737 mmHg 94%
    22:00 +15°C° 0 mm 2 mps 738 mmHg 94%
    23:00 +14°C° 0 mm 1 mps 738 mmHg 94%

    Day after tomorrow, 19 August, Monday

    Time Temperature Precipitation Wind Pressure Humidity
    00:00 +14°C° 0 mm 1 mps 738 mmHg 94%
    01:00 +14°C° 0 mm 1 mps 739 mmHg 94%
    02:00 +14°C° 0 mm 1 mps 739 mmHg 94%
    03:00 +14°C° 0 mm 1 mps 739 mmHg 94%
    04:00 +14°C° 0 mm 1 mps 740 mmHg 95%
    05:00 +14°C° 0 mm 1 mps 740 mmHg 95%
    06:00 +15°C° 0 mm 1 mps 740 mmHg 90%
    07:00 +18°C° 0 mm 1 mps 741 mmHg 84%
    08:00 +20°C° 0 mm 1 mps 741 mmHg 79%
    09:00 +21°C° 0 mm 1 mps 741 mmHg 74%
    10:00 +22°C° 0 mm 1 mps 742 mmHg 69%
    11:00 +23°C° 0 mm 1 mps 742 mmHg 65%
    12:00 +24°C° 0 mm 1 mps 742 mmHg 62%
    13:00 +24°C° 0 mm 1 mps 742 mmHg 60%
    14:00 +25°C° 0 mm 1 mps 742 mmHg 57%
    15:00 +25°C° 0 mm 1 mps 742 mmHg 60%
    16:00 +25°C° 0 mm 1 mps 742 mmHg 64%
    17:00 +24°C° 0 mm 1 mps 742 mmHg 67%
    18:00 +23°C° 0 mm 1 mps 742 mmHg 70%
    19:00 +19°C° 0 mm 0 mps 742 mmHg 74%
    20:00 +17°C° 0 mm 0 mps 742 mmHg 78%
    21:00 +19°C° 0 mm 1 mps 743 mmHg 79%
    22:00 +19°C° 0 mm 1 mps 743 mmHg 81%
    23:00 +18°C° 0 mm 1 mps 743 mmHg 82%

    20 August, Tuesday

    Time Temperature Precipitation Wind Pressure Humidity
    00:00 +18°C° 0 mm 1 mps 743 mmHg 83%
    01:00 +18°C° 0 mm 1 mps 743 mmHg 85%
    02:00 +15°C° 0 mm 0 mps 743 mmHg 86%
    03:00 +15°C° 0 mm 0 mps 743 mmHg 86%
    04:00 +16°C° 0 mm 1 mps 743 mmHg 86%
    05:00 +16°C° 0 mm 1 mps 743 mmHg 86%
    06:00 +19°C° 0 mm 1 mps 744 mmHg 82%
    07:00 +20°C° 0 mm 1 mps 744 mmHg 77%
    08:00 +22°C° 0 mm 1 mps 744 mmHg 72%
    09:00 +23°C° 0 mm 1 mps 744 mmHg 68%
    10:00 +24°C° 0 mm 1 mps 744 mmHg 64%
    11:00 +25°C° 0 mm 1 mps 744 mmHg 60%
    12:00 +26°C° 0 mm 1 mps 744 mmHg 58%
    13:00 +26°C° 0 mm 1 mps 744 mmHg 56%
    14:00 +27°C° 0 mm 1 mps 743 mmHg 53%
    15:00 +26°C° 0 mm 1 mps 743 mmHg 56%
    16:00 +26°C° 0 mm 1 mps 743 mmHg 60%
    17:00 +26°C° 0 mm 1 mps 743 mmHg 63%
    18:00 +24°C° 0 mm 1 mps 743 mmHg 66%
    19:00 +23°C° 0 mm 1 mps 743 mmHg 69%
    20:00 +21°C° 0 mm 1 mps 743 mmHg 73%
    21:00 +20°C° 0 mm 1 mps 743 mmHg 75%
    22:00 +20°C° 0 mm 1 mps 743 mmHg 78%
    23:00 +19°C° 0 mm 1 mps 743 mmHg 80%

    21 August, Wednesday

    Time Temperature Precipitation Wind Pressure Humidity
    00:00 +19°C° 0 mm 1 mps 743 mmHg 81%
    01:00 +19°C° 0 mm 1 mps 743 mmHg 83%
    02:00 +19°C° 0 mm 1 mps 743 mmHg 84%
    03:00 +18°C° 0 mm 1 mps 743 mmHg 85%
    04:00 +18°C° 0 mm 1 mps 743 mmHg 85%
    05:00 +17°C° 0 mm 2 mps 743 mmHg 86%
    06:00 +19°C° 0 mm 2 mps 743 mmHg 81%
    07:00 +20°C° 0 mm 2 mps 743 mmHg 77%
    08:00 +21°C° 0 mm 3 mps 743 mmHg 72%
    09:00 +24°C° 0 mm 3 mps 743 mmHg 68%
    10:00 +25°C° 0 mm 3 mps 743 mmHg 64%
    11:00 +26°C° 0 mm 3 mps 743 mmHg 59%
    12:00 +26°C° 0 mm 4 mps 743 mmHg 60%
    13:00 +27°C° 0 mm 4 mps 742 mmHg 60%
    14:00 +27°C° 0 mm 4 mps 742 mmHg 60%
    15:00 +27°C° 0 mm 4 mps 742 mmHg 65%
    16:00 +26°C° 0 mm 3 mps 741 mmHg 70%
    17:00 +26°C° 0 mm 3 mps 741 mmHg 74%
    18:00 +25°C° 0 mm 3 mps 741 mmHg 80%
    19:00 +22°C° 0 mm 3 mps 741 mmHg 86%
    20:00 +21°C° 0 mm 3 mps 741 mmHg 92%
    21:00 +21°C° 0 mm 3 mps 740 mmHg 92%
    22:00 +21°C° 0 mm 3 mps 740 mmHg 92%
    23:00 +20°C° 0 mm 3 mps 740 mmHg 92%

    22 August, Thursday

    Time Temperature Precipitation Wind Pressure Humidity
    00:00 +20°C° 0 mm 3 mps 740 mmHg 92%
    01:00 +20°C° 0 mm 2 mps 740 mmHg 93%
    02:00 +19°C° 0 mm 2 mps 740 mmHg 93%
    03:00 +19°C° 0 mm 2 mps 739 mmHg 93%
    04:00 +20°C° 0 mm 1 mps 739 mmHg 94%
    05:00 +20°C° 0 mm 1 mps 739 mmHg 94%
    06:00 +21°C° 0 mm 1 mps 739 mmHg 90%
    07:00 +23°C° 0 mm 1 mps 739 mmHg 85%
    08:00 +24°C° 0 mm 1 mps 739 mmHg 80%
    09:00 +26°C° 0 mm 2 mps 739 mmHg 77%
    10:00 +27°C° 0 mm 3 mps 740 mmHg 73%
    11:00 +28°C° 0 mm 3 mps 740 mmHg 69%
    12:00 +28°C° 0 mm 3 mps 740 mmHg 68%
    13:00 +28°C° 0 mm 3 mps 740 mmHg 66%
    14:00 +28°C° 0 mm 3 mps 740 mmHg 65%
    15:00 +27°C° 0 mm 4 mps 740 mmHg 69%
    16:00 +26°C° 0 mm 4 mps 740 mmHg 73%
    17:00 +25°C° 0 mm 5 mps 741 mmHg 77%
    18:00 +23°C° 0 mm 5 mps 741 mmHg 79%
    19:00 +21°C° 0 mm 5 mps 741 mmHg 81%
    20:00 +19°C° 0 mm 5 mps 742 mmHg 83%
    21:00 +17°C° 0 mm 5 mps 742 mmHg 83%
    22:00 +17°C° 0 mm 5 mps 742 mmHg 83%
    23:00 +16°C° 0 mm 5 mps 743 mmHg 83%
    Show more